White Plains, CT

11:59 PM EST on December 14, 2017 (GMT -0500)
Westchester County

Weather History for KHPN - January, 2013

Change the Weather History Date:

Friday, January 11, 2013

  Actual Average Record
Temperature  
Mean Temperature 36 °F -  
Max Temperature 43 °F 34 °F 57 °F (1975)
Min Temperature 30 °F 21 °F -2 °F (1982)
Degree Days  
Heating Degree Days 29    
Moisture  
Dew Point 32 °F    
Average Humidity 81    
Maximum Humidity 100    
Minimum Humidity 52    
Precipitation  
Precipitation 0.42 in - - ()
Sea Level Pressure  
Sea Level Pressure 30.30 in    
Wind  
Wind Speed 3 mph (East)    
Max Wind Speed 8 mph    
Max Gust Speed -    
Visibility 5 miles    
Events Fog , Rain    
Averages and records for this station are not official NWS values.
T = Trace of Precipitation, MM = Missing Value Source: NWS Daily Summary

Daily Weather History Graph

Daily Weather History Graph

Search for Another Location

Airport or City:

Trip Planner

Search our weather history database for the weather conditions in past years. The results will help you decide how hot, cold, wet, or windy it might be!

Date:

Astronomy

Jan. 11, 2013 Rise Set
Actual Time 7:19 AM EST 4:47 PM EST
Civil Twilight 6:48 AM EST 5:17 PM EST
Nautical Twilight 6:14 AM EST 5:51 PM EST
Astronomical Twilight 5:41 AM EST 6:24 PM EST
Moon 6:49 AM EST (1/11) 5:02 PM EST (1/11)
Length of Visible Light 10h 29m
Length of Day
9h 27m
Waning Crescent, 0% of the Moon is Illuminated
Jan 11
Waning Crescent
Jan 11
New
Jan 18
First Quarter
Jan 26
Full
Feb 3
Last Quarter

Hourly Weather History & Observations

Time (EST) Temp. Windchill Dew Point Humidity Pressure Visibility Wind Dir Wind Speed Gust Speed Precip Events Conditions
12:56 AM 37.4 °F 33.8 °F 21.2 °F 52% 30.51 in 10.0 mi NNE 4.6 mph - N/A   Clear
1:56 AM 35.1 °F 30.1 °F 21.9 °F 59% 30.51 in 10.0 mi NNE 5.8 mph - N/A   Clear
2:56 AM 33.1 °F - 21.9 °F 64% 30.50 in 10.0 mi Calm Calm - N/A   Clear
3:56 AM 30.9 °F - 21.0 °F 67% 30.48 in 10.0 mi Calm Calm - N/A   Clear
4:56 AM 33.1 °F - 21.0 °F 61% 30.46 in 10.0 mi Calm Calm - N/A   Clear
5:56 AM 34.0 °F - 21.0 °F 59% 30.46 in 10.0 mi Calm Calm - N/A   Clear
6:56 AM 34.0 °F 31.0 °F 21.0 °F 59% 30.48 in 10.0 mi Variable 3.5 mph - N/A   Clear
7:56 AM 34.0 °F - 21.9 °F 61% 30.49 in 10.0 mi Calm Calm - N/A   Clear
8:56 AM 35.1 °F 30.1 °F 23.0 °F 61% 30.46 in 10.0 mi East 5.8 mph - N/A   Partly Cloudy
9:56 AM 36.0 °F 33.3 °F 25.0 °F 64% 30.47 in 10.0 mi SE 3.5 mph - N/A   Mostly Cloudy
10:56 AM 37.0 °F 32.4 °F 27.0 °F 67% 30.44 in 10.0 mi ESE 5.8 mph - N/A   Mostly Cloudy
11:56 AM 37.9 °F 32.7 °F 28.9 °F 70% 30.38 in 10.0 mi ESE 6.9 mph - N/A   Mostly Cloudy
12:56 PM 39.0 °F 33.4 °F 30.0 °F 70% 30.35 in 10.0 mi ESE 8.1 mph - 0.00 in   Overcast
1:56 PM 37.9 °F 35.5 °F 32.0 °F 79% 30.34 in 7.0 mi East 3.5 mph - 0.01 in Rain Light Rain
2:56 PM 37.0 °F 32.4 °F 33.1 °F 86% 30.31 in 10.0 mi East 5.8 mph - 0.01 in   Overcast
3:56 PM 37.0 °F 34.5 °F 34.0 °F 89% 30.29 in 8.0 mi East 3.5 mph - 0.01 in   Light Drizzle
4:56 PM 37.0 °F 34.5 °F 34.0 °F 89% 30.26 in 6.0 mi East 3.5 mph - 0.00 in Rain Light Rain
5:52 PM 37.4 °F 32.8 °F 35.6 °F 93% 30.21 in 2.0 mi East 5.8 mph - 0.04 in Rain Light Rain
5:56 PM 37.0 °F 34.5 °F 35.1 °F 93% 30.23 in 2.0 mi East 3.5 mph - 0.05 in Rain Light Rain
6:56 PM 37.9 °F 33.5 °F 36.0 °F 93% 30.20 in 1.0 mi East 5.8 mph - 0.03 in Rain Light Rain
7:03 PM 37.4 °F 34.9 °F 37.4 °F 100% 30.18 in 2.5 mi East 3.5 mph - 0.02 in Rain Light Rain
7:37 PM 39.2 °F 35.9 °F 37.4 °F 93% 30.17 in 1.0 mi ENE 4.6 mph - 0.11 in Rain Light Rain
7:56 PM 39.9 °F - 39.0 °F 97% 30.21 in 1.0 mi Calm Calm - 0.16 in Rain Light Rain
8:17 PM 41.0 °F - 39.2 °F 93% 30.18 in 1.5 mi Calm Calm - 0.06 in Rain Light Rain
8:39 PM 41.0 °F - 39.2 °F 93% 30.17 in 0.8 mi Calm Calm - 0.06 in Rain Light Rain
8:56 PM 39.9 °F - 39.0 °F 97% 30.18 in 0.5 mi Calm Calm - 0.07 in Rain Light Rain
9:14 PM 41.0 °F - 39.2 °F 93% 30.16 in 0.2 mi Calm Calm - 0.00 in Fog , Rain Light Rain
9:56 PM 41.0 °F 38.0 °F 39.9 °F 96% 30.16 in 0.2 mi ESE 4.6 mph - 0.03 in Fog , Rain Light Rain
10:33 PM 42.8 °F 40.1 °F 39.2 °F 87% 30.13 in 0.2 mi East 4.6 mph - 0.00 in Fog , Rain Light Rain
10:40 PM 42.8 °F 39.3 °F 41.0 °F 93% 30.13 in 0.2 mi East 5.8 mph - 0.01 in Fog , Rain Light Rain
10:56 PM 42.1 °F 39.2 °F 41.0 °F 96% 30.14 in 0.2 mi East 4.6 mph - 0.02 in Fog , Rain Light Rain
11:54 PM 42.8 °F 39.3 °F 41.0 °F 93% 30.09 in 1.0 mi East 5.8 mph - 0.03 in Rain Rain
11:56 PM 43.0 °F 39.5 °F 42.1 °F 97% 30.10 in 0.8 mi East 5.8 mph - 0.03 in Rain Rain